Location: Casone le Fosse
(44.6547°N, 12.1103°E)
Time: 04:02:59
(UTC+00:00)

Cosmos 2058 Rocket - Pass Details

Date: 29 October 2020
Orbit: 610 x 640 km, 82.5° (Epoch: 01 December)

Event Time Altitude Azimuth Distance (km) Brightness Sun altitude
Rises 16:39:10 0° 172° (S) 2,916 6.6 -6.8°
Reaches altitude 10° 16:41:27 10° 167° (SSE) 2,016 5.7 -7.2°
Maximum altitude 16:45:45 48° 93° (E) 840 3.4 -8.0°
Drops below altitude 10° 16:50:06 10° 20° (NNE) 2,041 5.4 -8.7°
Sets 16:52:24 0° 15° (NNE) 2,956 6.3 -9.1°
